^^
Saratoga-Weather Station Historical Data
Daily Summary for September 11, 2021 Units:  Metric    English   Both
Daily Weekly Monthly Yearly Custom
  High: Low: Average:
Temperature: 22.4 °C 13.1 °C 18.3 °C
Dew Point: 17.3 °C 11.8 °C 15 °C
Humidity: 96% 56% 82%
Wind Speed: 17.7km/h 0km/h 3.2km/h
Wind Gust: 20.9km/h - -
Wind- - WSW
Pressure: 1018.3 hPa 1015.6 hPa -
Precipitation: 1.5 mm    
Historical Graphs
 
 
Tabular Data for September 11, 2021
Time Temperature Dew Point Pressure Wind Wind Speed Wind Gust Humidity Rainfall Rate (Hourly) solar
00:03 17.1 °C 16.3 °C 1015.6 hPa Calm   1.6 km/h 95% 0.0 mm 0 W/m2
00:08 17.1 °C 16.3 °C 1015.6 hPa Calm     95% 0.0 mm 0 W/m2
00:13 17.1 °C 16.3 °C 1015.6 hPa Calm     95% 0.0 mm 0 W/m2
00:18 17.1 °C 16.3 °C 1015.9 hPa Calm     95% 0.0 mm 0 W/m2
00:23 17.1 °C 16.3 °C 1015.9 hPa Calm     95% 0.0 mm 0 W/m2
00:28 17.1 °C 16.3 °C 1015.9 hPa Calm     95% 0.0 mm 0 W/m2
00:33 17.1 °C 16.3 °C 1015.9 hPa Calm     95% 0.0 mm 0 W/m2
00:38 17.1 °C 16.3 °C 1015.9 hPa ESE 1.4 km/h 1.6 km/h 95% 0.0 mm 0 W/m2
00:43 17.1 °C 16.3 °C 1015.9 hPa ESE 1.4 km/h 3.2 km/h 95% 0.0 mm 0 W/m2
00:48 17.1 °C 16.3 °C 1015.9 hPa ESE 3.2 km/h 3.2 km/h 95% 0.0 mm 0 W/m2
00:53 17.1 °C 16.3 °C 1015.9 hPa Calm   3.2 km/h 95% 0.0 mm 0 W/m2
00:58 17.1 °C 16.5 °C 1015.9 hPa Calm   3.2 km/h 96% 0.8 mm 0 W/m2
01:03 17.1 °C 16.5 °C 1015.9 hPa Calm   1.6 km/h 96% 1.0 mm 0 W/m2
01:08 17.2 °C 16.6 °C 1015.9 hPa Calm   3.2 km/h 96% 1.0 mm 0 W/m2
01:13 17.2 °C 16.6 °C 1015.9 hPa ENE 1.4 km/h 3.2 km/h 96% 1.0 mm 0 W/m2
01:18 17.2 °C 16.6 °C 1015.9 hPa Calm   1.6 km/h 96% 1.0 mm 0 W/m2
01:23 17.1 °C 16.5 °C 1015.9 hPa ENE 3.2 km/h 3.2 km/h 96% 1.0 mm 0 W/m2
01:28 17.2 °C 16.6 °C 1015.9 hPa East 3.2 km/h 3.2 km/h 96% 1.0 mm 0 W/m2
01:33 17.2 °C 16.6 °C 1015.9 hPa Calm   1.6 km/h 96% 1.0 mm 0 W/m2
01:38 17.2 °C 16.6 °C 1015.9 hPa Calm   3.2 km/h 96% 1.0 mm 0 W/m2
01:43 17.2 °C 16.6 °C 1015.9 hPa ENE 1.4 km/h 3.2 km/h 96% 1.0 mm 0 W/m2
01:49 17.2 °C 16.6 °C 1015.9 hPa ENE 4.7 km/h 4.8 km/h 96% 1.0 mm 0 W/m2
01:54 17.2 °C 16.6 °C 1015.9 hPa Calm   3.2 km/h 96% 1.0 mm 0 W/m2
01:59 17.2 °C 16.6 °C 1015.9 hPa Calm   3.2 km/h 96% 0.2 mm 0 W/m2
02:04 17.2 °C 16.6 °C 1015.9 hPa East 3.2 km/h 4.8 km/h 96% 0.0 mm 0 W/m2
02:09 17.2 °C 16.6 °C 1015.9 hPa SSE 1.4 km/h 3.2 km/h 96% 0.0 mm 0 W/m2
02:14 17.2 °C 16.6 °C 1015.9 hPa Calm   3.2 km/h 96% 0.0 mm 0 W/m2
02:19 17.2 °C 16.4 °C 1015.9 hPa East 3.2 km/h 4.8 km/h 95% 0.0 mm 0 W/m2
02:24 17.2 °C 16.4 °C 1015.9 hPa ENE 1.4 km/h 1.6 km/h 95% 0.0 mm 0 W/m2
02:29 17.1 °C 16.3 °C 1015.9 hPa Calm   4.8 km/h 95% 0.0 mm 0 W/m2
02:34 17.1 °C 16.3 °C 1015.9 hPa Calm   1.6 km/h 95% 0.0 mm 0 W/m2
02:39 17.1 °C 16.3 °C 1015.9 hPa Calm   1.6 km/h 95% 0.0 mm 0 W/m2
02:44 17.1 °C 16.3 °C 1015.9 hPa West 1.4 km/h 4.8 km/h 95% 0.0 mm 0 W/m2
02:49 17.2 °C 16.4 °C 1015.9 hPa Calm   1.6 km/h 95% 0.0 mm 0 W/m2
02:54 17.2 °C 16.4 °C 1015.9 hPa West 1.4 km/h 4.8 km/h 95% 0.0 mm 0 W/m2
02:59 17.2 °C 16.4 °C 1015.9 hPa Calm   3.2 km/h 95% 0.0 mm 0 W/m2
03:04 17.2 °C 16.4 °C 1015.9 hPa Calm   1.6 km/h 95% 0.0 mm 0 W/m2
03:09 17.2 °C 16.6 °C 1015.9 hPa East 3.2 km/h 4.8 km/h 96% 0.0 mm 0 W/m2
03:14 17.2 °C 16.6 °C 1015.9 hPa Calm     96% 0.0 mm 0 W/m2
03:19 17.2 °C 16.6 °C 1015.9 hPa Calm   3.2 km/h 96% 0.0 mm 0 W/m2
03:24 17.2 °C 16.6 °C 1015.9 hPa SW 1.4 km/h 3.2 km/h 96% 0.0 mm 0 W/m2
03:29 17.2 °C 16.6 °C 1015.9 hPa SW 1.4 km/h 1.6 km/h 96% 0.0 mm 0 W/m2
03:34 17.2 °C 16.6 °C 1015.9 hPa Calm     96% 0.0 mm 0 W/m2
03:39 17.2 °C 16.6 °C 1015.9 hPa Calm   1.6 km/h 96% 0.0 mm 0 W/m2
03:44 17.2 °C 16.6 °C 1015.9 hPa Calm     96% 0.0 mm 0 W/m2
03:49 17.2 °C 16.6 °C 1015.9 hPa NW 1.4 km/h 3.2 km/h 96% 0.0 mm 0 W/m2
03:54 17.2 °C 16.4 °C 1015.9 hPa Calm   3.2 km/h 95% 0.0 mm 0 W/m2
03:59 17.2 °C 16.4 °C 1015.9 hPa Calm   1.6 km/h 95% 0.0 mm 0 W/m2
04:04 17.1 °C 16.3 °C 1015.9 hPa Calm     95% 0.0 mm 0 W/m2
04:09 17.1 °C 16.3 °C 1015.9 hPa Calm   1.6 km/h 95% 0.0 mm 0 W/m2
04:14 17.1 °C 16.3 °C 1015.9 hPa Calm     95% 0.0 mm 0 W/m2
04:19 17.1 °C 16.3 °C 1015.9 hPa Calm     95% 0.0 mm 0 W/m2
04:24 17 °C 16.2 °C 1015.9 hPa Calm     95% 0.0 mm 0 W/m2
04:29 17 °C 16.4 °C 1015.9 hPa Calm   1.6 km/h 96% 0.0 mm 0 W/m2
04:34 16.9 °C 16.3 °C 1015.9 hPa SE 1.4 km/h 1.6 km/h 96% 0.0 mm 0 W/m2
04:39 16.9 °C 16.3 °C 1015.9 hPa Calm     96% 0.0 mm 0 W/m2
04:44 16.9 °C 16.3 °C 1015.9 hPa Calm   1.6 km/h 96% 0.0 mm 0 W/m2
04:49 16.9 °C 16.3 °C 1015.9 hPa Calm     96% 0.0 mm 0 W/m2
04:54 16.9 °C 16.3 °C 1015.9 hPa Calm   3.2 km/h 96% 0.0 mm 0 W/m2
04:59 16.9 °C 16.3 °C 1015.9 hPa Calm     96% 0.0 mm 0 W/m2
05:04 16.9 °C 16.3 °C 1015.9 hPa Calm   3.2 km/h 96% 0.0 mm 0 W/m2
05:09 16.9 °C 16.3 °C 1015.9 hPa Calm   1.6 km/h 96% 0.0 mm 0 W/m2
05:14 16.9 °C 16.3 °C 1015.9 hPa Calm   1.6 km/h 96% 0.0 mm 0 W/m2
05:19 16.9 °C 16.3 °C 1015.6 hPa ESE 3.2 km/h 3.2 km/h 96% 0.0 mm 0 W/m2
05:24 16.9 °C 16.3 °C 1015.6 hPa ESE 1.4 km/h 1.6 km/h 96% 0.0 mm 0 W/m2
05:29 16.9 °C 16.3 °C 1015.9 hPa SW 1.4 km/h 3.2 km/h 96% 0.0 mm 0 W/m2
05:34 16.9 °C 16.3 °C 1015.9 hPa East 1.4 km/h 3.2 km/h 96% 0.0 mm 0 W/m2
05:39 16.9 °C 16.3 °C 1015.9 hPa Calm   1.6 km/h 96% 0.0 mm 0 W/m2
05:44 16.9 °C 16.3 °C 1015.9 hPa Calm   1.6 km/h 96% 0.0 mm 0 W/m2
05:49 16.9 °C 16.3 °C 1015.9 hPa Calm   1.6 km/h 96% 0.0 mm 0 W/m2
05:54 16.9 °C 16.3 °C 1015.9 hPa Calm   1.6 km/h 96% 0.0 mm 0 W/m2
05:59 16.9 °C 16.3 °C 1015.9 hPa Calm     96% 0.0 mm 0 W/m2
06:04 16.9 °C 16.3 °C 1015.9 hPa Calm     96% 0.0 mm 0 W/m2
06:09 16.9 °C 16.3 °C 1015.9 hPa NNW 1.4 km/h 4.8 km/h 96% 0.0 mm 0 W/m2
06:14 17 °C 16.4 °C 1015.9 hPa Calm   1.6 km/h 96% 0.0 mm 0 W/m2
06:19 17 °C 16.4 °C 1015.9 hPa Calm   4.8 km/h 96% 0.2 mm 0 W/m2
06:24 17 °C 16.4 °C 1015.9 hPa Calm     96% 0.2 mm 0 W/m2
06:29 17 °C 16.4 °C 1015.9 hPa Calm   1.6 km/h 96% 0.5 mm 0 W/m2
06:34 17 °C 16.4 °C 1015.9 hPa NNW 1.4 km/h 1.6 km/h 96% 0.5 mm 0 W/m2
06:39 17 °C 16.4 °C 1015.9 hPa Calm   1.6 km/h 96% 0.5 mm 0 W/m2
06:44 17 °C 16.4 °C 1015.9 hPa Calm     96% 0.5 mm 0 W/m2
06:50 17 °C 16.4 °C 1015.9 hPa WNW 1.4 km/h 4.8 km/h 96% 0.5 mm 0 W/m2
06:55 17 °C 16.4 °C 1016.3 hPa WNW 1.4 km/h 3.2 km/h 96% 0.5 mm 0 W/m2
07:00 17 °C 16.4 °C 1015.9 hPa WNW 4.7 km/h 4.8 km/h 96% 0.5 mm 0 W/m2
07:05 17 °C 16.4 °C 1016.3 hPa WNW 3.2 km/h 6.4 km/h 96% 0.5 mm 0 W/m2
07:10 17 °C 16.4 °C 1016.3 hPa West 6.4 km/h 6.4 km/h 96% 0.5 mm 0 W/m2
07:15 17 °C 16.4 °C 1016.3 hPa West 4.7 km/h 11.3 km/h 96% 0.5 mm 0 W/m2
07:20 17 °C 16.4 °C 1016.3 hPa West 4.7 km/h 6.4 km/h 96% 0.5 mm 0 W/m2
07:25 17.1 °C 16.3 °C 1016.3 hPa WSW 4.7 km/h 6.4 km/h 95% 0.2 mm 0 W/m2
07:30 17.1 °C 16.3 °C 1016.3 hPa WNW 3.2 km/h 9.7 km/h 95% 0.2 mm 5 W/m2
07:35 17.1 °C 16.3 °C 1016.3 hPa West 4.7 km/h 6.4 km/h 95% 0.2 mm 9 W/m2
07:40 17.1 °C 16.3 °C 1016.3 hPa Calm   8 km/h 95% 0.2 mm 11 W/m2
07:45 17.1 °C 16.3 °C 1016.3 hPa Calm   3.2 km/h 95% 0.2 mm 11 W/m2
07:50 17 °C 16.2 °C 1016.3 hPa West 1.4 km/h 4.8 km/h 95% 0.2 mm 12 W/m2
07:55 16.9 °C 16.1 °C 1016.3 hPa WNW 4.7 km/h 9.7 km/h 95% 0.2 mm 18 W/m2
08:00 16.9 °C 16.1 °C 1016.6 hPa WSW 1.4 km/h 9.7 km/h 95% 0.2 mm 35 W/m2
08:05 16.9 °C 16.1 °C 1016.6 hPa West 3.2 km/h 4.8 km/h 95% 0.2 mm 51 W/m2
08:10 17 °C 16.4 °C 1016.6 hPa West 1.4 km/h 9.7 km/h 96% 0.2 mm 60 W/m2
08:15 17.1 °C 16.3 °C 1016.6 hPa West 3.2 km/h 6.4 km/h 95% 0.2 mm 60 W/m2
08:20 17.1 °C 16.3 °C 1016.6 hPa West 1.4 km/h 3.2 km/h 95% 0.0 mm 62 W/m2
08:25 17.2 °C 16.4 °C 1016.9 hPa West 3.2 km/h 6.4 km/h 95% 0.0 mm 51 W/m2
08:30 17.2 °C 16.4 °C 1016.9 hPa West 3.2 km/h 4.8 km/h 95% 0.0 mm 47 W/m2
08:35 17.3 °C 16.5 °C 1016.9 hPa WSW 1.4 km/h 4.8 km/h 95% 0.0 mm 25 W/m2
08:40 17.3 °C 16.5 °C 1016.9 hPa West 1.4 km/h 1.6 km/h 95% 0.0 mm 42 W/m2
08:45 17.3 °C 16.5 °C 1016.9 hPa West 3.2 km/h 4.8 km/h 95% 0.0 mm 62 W/m2
08:50 17.3 °C 16.5 °C 1016.9 hPa WSW 4.7 km/h 4.8 km/h 95% 0.0 mm 83 W/m2
08:55 17.4 °C 16.6 °C 1016.9 hPa WNW 3.2 km/h 6.4 km/h 95% 0.0 mm 81 W/m2
09:00 17.4 °C 16.6 °C 1016.9 hPa WNW 1.4 km/h 1.6 km/h 95% 0.0 mm 114 W/m2
09:05 17.6 °C 16.8 °C 1016.9 hPa WSW 3.2 km/h 4.8 km/h 95% 0.0 mm 144 W/m2
09:10 17.7 °C 16.9 °C 1016.9 hPa WNW 3.2 km/h 3.2 km/h 95% 0.0 mm 123 W/m2
09:15 17.7 °C 16.9 °C 1016.9 hPa WNW 1.4 km/h 4.8 km/h 95% 0.0 mm 121 W/m2
09:20 17.9 °C 17.1 °C 1016.9 hPa WNW 1.4 km/h 4.8 km/h 95% 0.0 mm 121 W/m2
09:25 18 °C 17.2 °C 1016.9 hPa WNW 1.4 km/h 3.2 km/h 95% 0.0 mm 130 W/m2
09:30 18.1 °C 17.1 °C 1016.9 hPa SW 6.4 km/h 8 km/h 94% 0.0 mm 149 W/m2
09:35 18.1 °C 17.1 °C 1016.9 hPa WNW 1.4 km/h 4.8 km/h 94% 0.0 mm 132 W/m2
09:40 18.2 °C 17 °C 1017.3 hPa West 3.2 km/h 4.8 km/h 93% 0.0 mm 148 W/m2
09:45 18.2 °C 16.9 °C 1017.3 hPa NW 4.7 km/h 9.7 km/h 92% 0.0 mm 236 W/m2
09:50 18.3 °C 17 °C 1017.3 hPa WNW 3.2 km/h 12.9 km/h 92% 0.0 mm 107 W/m2
09:55 18.3 °C 17 °C 1017.3 hPa West 3.2 km/h 6.4 km/h 92% 0.0 mm 174 W/m2
10:00 18.4 °C 17.1 °C 1017.3 hPa NW 4.7 km/h 9.7 km/h 92% 0.0 mm 269 W/m2
10:05 18.6 °C 17.3 °C 1017.3 hPa WNW 4.7 km/h 6.4 km/h 92% 0.0 mm 176 W/m2
10:10 18.6 °C 16.9 °C 1017.6 hPa WNW 6.4 km/h 12.9 km/h 90% 0.0 mm 151 W/m2
10:15 18.5 °C 16.7 °C 1017.3 hPa NW 3.2 km/h 9.7 km/h 89% 0.0 mm 128 W/m2
10:20 18.5 °C 16.7 °C 1017.3 hPa West 3.2 km/h 4.8 km/h 89% 0.0 mm 114 W/m2
10:25 18.5 °C 16.7 °C 1017.6 hPa WNW 4.7 km/h 8 km/h 89% 0.0 mm 424 W/m2
10:30 18.7 °C 17 °C 1017.6 hPa WSW 1.4 km/h 3.2 km/h 90% 0.0 mm 527 W/m2
10:35 18.9 °C 17 °C 1017.6 hPa West 3.2 km/h 8 km/h 89% 0.0 mm 146 W/m2
10:40 19.1 °C 16.9 °C 1017.6 hPa West 6.4 km/h 11.3 km/h 87% 0.0 mm 517 W/m2
10:45 19.2 °C 16.8 °C 1017.6 hPa Calm   14.5 km/h 86% 0.0 mm 519 W/m2
10:50 19.3 °C 16.7 °C 1017.6 hPa WSW 4.7 km/h 11.3 km/h 85% 0.0 mm 501 W/m2
10:55 19.3 °C 16.5 °C 1017.6 hPa West 6.4 km/h 12.9 km/h 84% 0.0 mm 158 W/m2
11:00 19.3 °C 16.5 °C 1017.6 hPa WNW 3.2 km/h 12.9 km/h 84% 0.0 mm 355 W/m2
11:05 19.4 °C 16.6 °C 1017.6 hPa NW 4.7 km/h 8 km/h 84% 0.0 mm 297 W/m2
11:10 19.4 °C 16.2 °C 1018.0 hPa WNW 4.7 km/h 14.5 km/h 82% 0.0 mm 95 W/m2
11:15 19.3 °C 16.3 °C 1018.0 hPa West 9.7 km/h 9.7 km/h 83% 0.0 mm 606 W/m2
11:20 19.5 °C 16.3 °C 1018.0 hPa WNW 3.2 km/h 9.7 km/h 82% 0.0 mm 635 W/m2
11:25 19.6 °C 16.4 °C 1018.0 hPa West 9.7 km/h 11.3 km/h 82% 0.0 mm 220 W/m2
11:30 19.4 °C 16.1 °C 1018.0 hPa West 3.2 km/h 20.9 km/h 81% 0.0 mm 114 W/m2
11:35 19.2 °C 16.2 °C 1017.6 hPa WNW 4.7 km/h 4.8 km/h 83% 0.0 mm 619 W/m2
11:40 19.2 °C 16.2 °C 1017.6 hPa West 3.2 km/h 20.9 km/h 83% 0.0 mm 608 W/m2
11:45 19.4 °C 16.1 °C 1017.6 hPa NW 4.7 km/h 12.9 km/h 81% 0.0 mm 621 W/m2
11:50 19.8 °C 16.1 °C 1017.6 hPa West 9.7 km/h 11.3 km/h 79% 0.0 mm 624 W/m2
11:55 20.2 °C 16.4 °C 1017.6 hPa West 4.7 km/h 6.4 km/h 79% 0.0 mm 638 W/m2
12:00 20.4 °C 16.2 °C 1017.6 hPa WNW 6.4 km/h 9.7 km/h 77% 0.0 mm 649 W/m2
12:06 20.7 °C 16.5 °C 1017.6 hPa WSW 7.9 km/h 11.3 km/h 77% 0.0 mm 671 W/m2
12:11 20.8 °C 16.2 °C 1017.6 hPa SW 6.4 km/h 12.9 km/h 75% 0.0 mm 691 W/m2
12:16 20.8 °C 15.8 °C 1017.6 hPa WNW 13 km/h 16.1 km/h 73% 0.0 mm 694 W/m2
12:21 20.8 °C 16 °C 1017.6 hPa SSW 4.7 km/h 12.9 km/h 74% 0.0 mm 735 W/m2
12:26 20.8 °C 16 °C 1017.6 hPa WSW 11.1 km/h 16.1 km/h 74% 0.0 mm 784 W/m2
12:31 20.4 °C 15.6 °C 1017.6 hPa West 9.7 km/h 14.5 km/h 74% 0.0 mm 102 W/m2
12:36 20.2 °C 15.8 °C 1017.6 hPa West 3.2 km/h 11.3 km/h 76% 0.0 mm 737 W/m2
12:41 20.4 °C 15.8 °C 1017.6 hPa NW 3.2 km/h 11.3 km/h 75% 0.0 mm 130 W/m2
12:46 20.3 °C 15.7 °C 1017.6 hPa WNW 3.2 km/h 12.9 km/h 75% 0.0 mm 155 W/m2
12:51 20.3 °C 15.9 °C 1017.6 hPa WNW 6.4 km/h 11.3 km/h 76% 0.0 mm 789 W/m2
12:56 20.5 °C 15.7 °C 1017.3 hPa WSW 6.4 km/h 20.9 km/h 74% 0.0 mm 791 W/m2
13:01 20.6 °C 15.8 °C 1017.6 hPa WNW 13 km/h 16.1 km/h 74% 0.0 mm 775 W/m2
13:06 20.6 °C 15.4 °C 1017.3 hPa WNW 6.4 km/h 17.7 km/h 72% 0.0 mm 134 W/m2
13:11 20.7 °C 15.5 °C 1017.3 hPa WNW 9.7 km/h 11.3 km/h 72% 0.0 mm 705 W/m2
13:16 20.9 °C 15.7 °C 1017.3 hPa West 4.7 km/h 17.7 km/h 72% 0.0 mm 735 W/m2
13:21 21.2 °C 15.5 °C 1017.3 hPa West 11.1 km/h 19.3 km/h 70% 0.0 mm 758 W/m2
13:26 21 °C 15.3 °C 1017.3 hPa WNW 4.7 km/h 9.7 km/h 70% 0.0 mm 172 W/m2
13:31 20.8 °C 14.9 °C 1017.3 hPa NW 4.7 km/h 19.3 km/h 69% 0.0 mm 197 W/m2
13:36 20.8 °C 14.7 °C 1017.3 hPa West 9.7 km/h 12.9 km/h 68% 0.0 mm 881 W/m2
13:41 21.1 °C 15 °C 1017.3 hPa SW 9.7 km/h 14.5 km/h 68% 0.0 mm 666 W/m2
13:46 21.3 °C 14.9 °C 1017.3 hPa WNW 7.9 km/h 14.5 km/h 67% 0.0 mm 786 W/m2
13:51 21.3 °C 15.2 °C 1017.3 hPa NW 6.4 km/h 14.5 km/h 68% 0.0 mm 786 W/m2
13:56 21.1 °C 15 °C 1017.3 hPa West 13 km/h 12.9 km/h 68% 0.0 mm 141 W/m2
14:01 20.9 °C 15 °C 1017.3 hPa WNW 6.4 km/h 12.9 km/h 69% 0.0 mm 735 W/m2
14:06 21.2 °C 15.1 °C 1017.3 hPa WNW 11.1 km/h 11.3 km/h 68% 0.0 mm 700 W/m2
14:11 21.4 °C 14.8 °C 1017.3 hPa NW 6.4 km/h 14.5 km/h 66% 0.0 mm 731 W/m2
14:16 21.6 °C 14.5 °C 1017.3 hPa NNW 13 km/h 20.9 km/h 64% 0.0 mm 733 W/m2
14:21 21.6 °C 14 °C 1017.3 hPa ESE 4.7 km/h 6.4 km/h 62% 0.0 mm 733 W/m2
14:26 21.6 °C 14 °C 1017.3 hPa West 4.7 km/h 20.9 km/h 62% 0.0 mm 740 W/m2
14:31 21.7 °C 14.1 °C 1017.3 hPa West 6.4 km/h 16.1 km/h 62% 0.0 mm 763 W/m2
14:36 21.8 °C 14.7 °C 1016.9 hPa WSW 13 km/h 12.9 km/h 64% 0.0 mm 780 W/m2
14:41 21.9 °C 14.3 °C 1016.9 hPa WNW 6.4 km/h 12.9 km/h 62% 0.0 mm 137 W/m2
14:46 21.7 °C 13.8 °C 1016.9 hPa West 9.7 km/h 12.9 km/h 61% 0.0 mm 831 W/m2
14:51 21.6 °C 14 °C 1017.3 hPa NW 6.4 km/h 17.7 km/h 62% 0.0 mm 744 W/m2
14:56 21.8 °C 13.9 °C 1016.9 hPa West 9.7 km/h 16.1 km/h 61% 0.0 mm 721 W/m2
15:01 21.9 °C 13.8 °C 1016.9 hPa WSW 6.4 km/h 17.7 km/h 60% 0.0 mm 693 W/m2
15:06 22.2 °C 15.1 °C 1016.9 hPa WSW 6.4 km/h 12.9 km/h 64% 0.0 mm 705 W/m2
15:11 22.4 °C 14.5 °C 1016.9 hPa WNW 6.4 km/h 16.1 km/h 61% 0.0 mm 694 W/m2
15:16 22.4 °C 14.3 °C 1016.9 hPa West 4.7 km/h 14.5 km/h 60% 0.0 mm 710 W/m2
15:21 21.9 °C 13.8 °C 1016.9 hPa WSW 13 km/h 14.5 km/h 60% 0.0 mm 174 W/m2
15:26 21.8 °C 13.9 °C 1016.9 hPa NW 7.9 km/h 11.3 km/h 61% 0.0 mm 712 W/m2
15:31 21.9 °C 14.3 °C 1016.9 hPa WNW 6.4 km/h 8 km/h 62% 0.0 mm 664 W/m2
15:36 21.6 °C 13.8 °C 1016.9 hPa WNW 6.4 km/h 11.3 km/h 61% 0.0 mm 120 W/m2
15:41 21.4 °C 13.6 °C 1016.9 hPa WNW 7.9 km/h 12.9 km/h 61% 0.0 mm 657 W/m2
15:46 21.6 °C 13.2 °C 1016.9 hPa West 14.3 km/h 14.5 km/h 59% 0.0 mm 622 W/m2
15:51 21.8 °C 13.2 °C 1016.9 hPa West 13 km/h 12.9 km/h 58% 0.0 mm 610 W/m2
15:56 22.1 °C 13.4 °C 1016.9 hPa WSW 17.7 km/h 17.7 km/h 58% 0.0 mm 631 W/m2
16:01 22 °C 13.9 °C 1016.9 hPa WSW 6.4 km/h 9.7 km/h 60% 0.0 mm 601 W/m2
16:06 21.9 °C 13.3 °C 1016.9 hPa West 9.7 km/h 12.9 km/h 58% 0.0 mm 148 W/m2
16:11 21.7 °C 13.3 °C 1016.9 hPa NW 3.2 km/h 11.3 km/h 59% 0.0 mm 578 W/m2
16:17 21.8 °C 13.4 °C 1017.3 hPa WNW 11.1 km/h 17.7 km/h 59% 0.0 mm 568 W/m2
16:22 21.9 °C 13.3 °C 1016.9 hPa WNW 3.2 km/h 9.7 km/h 58% 0.0 mm 566 W/m2
16:27 22.1 °C 13.2 °C 1017.3 hPa WNW 14.3 km/h 17.7 km/h 57% 0.0 mm 563 W/m2
16:32 22.1 °C 13.4 °C 1017.3 hPa West 4.7 km/h 14.5 km/h 58% 0.0 mm 561 W/m2
16:37 22.1 °C 13.4 °C 1017.3 hPa WNW 9.7 km/h 9.7 km/h 58% 0.0 mm 543 W/m2
16:42 21.9 °C 13.3 °C 1017.3 hPa WNW 4.7 km/h 16.1 km/h 58% 0.0 mm 151 W/m2
16:47 21.7 °C 13.6 °C 1017.3 hPa West 6.4 km/h 11.3 km/h 60% 0.0 mm 545 W/m2
16:52 21.7 °C 13.3 °C 1017.3 hPa WSW 6.4 km/h 12.9 km/h 59% 0.0 mm 95 W/m2
16:57 21.7 °C 13.6 °C 1017.3 hPa West 11.1 km/h 14.5 km/h 60% 0.0 mm 512 W/m2
17:02 21.7 °C 13.8 °C 1017.3 hPa WSW 7.9 km/h 12.9 km/h 61% 0.0 mm 483 W/m2
17:07 21.8 °C 13.7 °C 1017.3 hPa WSW 14.3 km/h 14.5 km/h 60% 0.0 mm 501 W/m2
17:12 21.9 °C 13.3 °C 1017.3 hPa WNW 6.4 km/h 16.1 km/h 58% 0.0 mm 443 W/m2
17:17 22.2 °C 13.5 °C 1017.3 hPa WSW 4.7 km/h 12.9 km/h 58% 0.0 mm 445 W/m2
17:22 22.3 °C 14.2 °C 1017.3 hPa WNW 13 km/h 16.1 km/h 60% 0.0 mm 432 W/m2
17:27 22.2 °C 13 °C 1017.3 hPa West 6.4 km/h 12.9 km/h 56% 0.0 mm 401 W/m2
17:32 22.1 °C 13.4 °C 1017.3 hPa West 6.4 km/h 12.9 km/h 58% 0.0 mm 387 W/m2
17:37 22 °C 13.1 °C 1017.3 hPa WNW 3.2 km/h 9.7 km/h 57% 0.0 mm 380 W/m2
17:42 22 °C 13.6 °C 1017.3 hPa West 4.7 km/h 9.7 km/h 59% 0.0 mm 394 W/m2
17:47 22.1 °C 13.7 °C 1016.9 hPa SW 1.4 km/h 6.4 km/h 59% 0.0 mm 374 W/m2
17:52 22.2 °C 14.1 °C 1016.9 hPa SW 6.4 km/h 6.4 km/h 60% 0.0 mm 343 W/m2
17:57 22.3 °C 13.6 °C 1016.9 hPa WNW 6.4 km/h 9.7 km/h 58% 0.0 mm 309 W/m2
18:02 22.2 °C 13.3 °C 1016.9 hPa West 11.1 km/h 11.3 km/h 57% 0.0 mm 292 W/m2
18:07 21.9 °C 13.3 °C 1016.9 hPa WSW 4.7 km/h 12.9 km/h 58% 0.0 mm 278 W/m2
18:12 21.8 °C 13.4 °C 1016.9 hPa West 3.2 km/h 11.3 km/h 59% 0.0 mm 260 W/m2
18:17 21.7 °C 13.6 °C 1016.9 hPa West 3.2 km/h 6.4 km/h 60% 0.0 mm 243 W/m2
18:22 21.7 °C 13.8 °C 1016.9 hPa West 4.7 km/h 6.4 km/h 61% 0.0 mm 230 W/m2
18:27 21.7 °C 13.6 °C 1016.9 hPa WNW 6.4 km/h 8 km/h 60% 0.0 mm 218 W/m2
18:32 21.5 °C 13.7 °C 1016.9 hPa West 4.7 km/h 9.7 km/h 61% 0.0 mm 202 W/m2
18:37 21.4 °C 13.3 °C 1016.9 hPa West 1.4 km/h 4.8 km/h 60% 0.0 mm 186 W/m2
18:42 21.2 °C 13.4 °C 1016.9 hPa West 3.2 km/h 6.4 km/h 61% 0.0 mm 174 W/m2
18:47 21 °C 13.4 °C 1016.9 hPa WSW 4.7 km/h 4.8 km/h 62% 0.0 mm 160 W/m2
18:52 20.8 °C 13 °C 1016.9 hPa West 6.4 km/h 8 km/h 61% 0.0 mm 142 W/m2
18:57 20.7 °C 13.4 °C 1016.9 hPa West 1.4 km/h 4.8 km/h 63% 0.0 mm 111 W/m2
19:02 20.4 °C 12.6 °C 1016.9 hPa West 4.7 km/h 9.7 km/h 61% 0.0 mm 95 W/m2
19:07 20.3 °C 13.3 °C 1016.9 hPa WSW 1.4 km/h 3.2 km/h 64% 0.0 mm 30 W/m2
19:12 20 °C 13.2 °C 1016.9 hPa WNW 9.7 km/h 9.7 km/h 65% 0.0 mm 26 W/m2
19:17 19.7 °C 13.2 °C 1017.3 hPa WSW 1.4 km/h 3.2 km/h 66% 0.0 mm 21 W/m2
19:22 19.5 °C 13 °C 1016.9 hPa WSW 3.2 km/h 4.8 km/h 66% 0.0 mm 21 W/m2
19:27 19.3 °C 13 °C 1017.3 hPa WSW 1.4 km/h 3.2 km/h 67% 0.0 mm 19 W/m2
19:32 19.1 °C 13.1 °C 1017.3 hPa SW 1.4 km/h 4.8 km/h 68% 0.0 mm 19 W/m2
19:37 19 °C 12.7 °C 1017.3 hPa WSW 1.4 km/h 4.8 km/h 67% 0.0 mm 16 W/m2
19:42 18.9 °C 12.9 °C 1017.3 hPa WSW 6.4 km/h 6.4 km/h 68% 0.0 mm 12 W/m2
19:47 18.8 °C 12.8 °C 1017.3 hPa WSW 1.4 km/h 6.4 km/h 68% 0.0 mm 11 W/m2
19:52 18.8 °C 12.8 °C 1017.3 hPa WSW 1.4 km/h 4.8 km/h 68% 0.0 mm 7 W/m2
19:57 18.7 °C 12.7 °C 1017.3 hPa West 1.4 km/h 4.8 km/h 68% 0.0 mm 5 W/m2
20:02 18.6 °C 13 °C 1017.3 hPa West 1.4 km/h 3.2 km/h 70% 0.0 mm 0 W/m2
20:07 18.4 °C 13 °C 1017.3 hPa Calm   4.8 km/h 71% 0.0 mm 0 W/m2
20:12 18.2 °C 13.3 °C 1017.3 hPa Calm     73% 0.0 mm 0 W/m2
20:17 18.1 °C 13.4 °C 1017.3 hPa Calm     74% 0.0 mm 0 W/m2
20:22 17.8 °C 13.1 °C 1017.3 hPa Calm     74% 0.0 mm 0 W/m2
20:27 17.4 °C 12.9 °C 1017.3 hPa West 1.4 km/h 1.6 km/h 75% 0.0 mm 0 W/m2
20:32 17.2 °C 13.1 °C 1017.3 hPa Calm   1.6 km/h 77% 0.0 mm 0 W/m2
20:37 17 °C 13.1 °C 1017.6 hPa Calm   1.6 km/h 78% 0.0 mm 0 W/m2
20:42 16.8 °C 12.9 °C 1017.6 hPa Calm     78% 0.0 mm 0 W/m2
20:47 16.6 °C 13.1 °C 1017.6 hPa Calm   1.6 km/h 80% 0.0 mm 0 W/m2
20:52 16.4 °C 12.9 °C 1017.6 hPa Calm     80% 0.0 mm 0 W/m2
20:57 16.3 °C 13 °C 1017.6 hPa Calm     81% 0.0 mm 0 W/m2
21:02 16.1 °C 13 °C 1017.6 hPa Calm     82% 0.0 mm 0 W/m2
21:07 15.9 °C 12.8 °C 1017.6 hPa Calm     82% 0.0 mm 0 W/m2
21:12 15.8 °C 12.9 °C 1017.6 hPa Calm     83% 0.0 mm 0 W/m2
21:17 15.7 °C 13 °C 1017.6 hPa Calm     84% 0.0 mm 0 W/m2
21:22 15.5 °C 12.8 °C 1018.0 hPa Calm     84% 0.0 mm 0 W/m2
21:27 15.4 °C 12.7 °C 1017.6 hPa Calm     84% 0.0 mm 0 W/m2
21:32 15.3 °C 12.6 °C 1018.0 hPa Calm     84% 0.0 mm 0 W/m2
21:37 15.2 °C 12.7 °C 1018.0 hPa Calm     85% 0.0 mm 0 W/m2
21:42 15.1 °C 12.6 °C 1018.0 hPa Calm     85% 0.0 mm 0 W/m2
21:47 14.9 °C 12.4 °C 1018.0 hPa Calm     85% 0.0 mm 0 W/m2
21:52 14.8 °C 12.3 °C 1018.0 hPa Calm     85% 0.0 mm 0 W/m2
21:57 14.7 °C 12.4 °C 1018.0 hPa Calm     86% 0.0 mm 0 W/m2
22:02 14.6 °C 12.3 °C 1018.0 hPa Calm     86% 0.0 mm 0 W/m2
22:07 14.4 °C 12.3 °C 1018.0 hPa Calm     87% 0.0 mm 0 W/m2
22:12 14.3 °C 12.2 °C 1018.0 hPa Calm     87% 0.0 mm 0 W/m2
22:17 14.3 °C 12.3 °C 1018.0 hPa Calm     88% 0.0 mm 0 W/m2
22:22 14.2 °C 12.2 °C 1018.0 hPa Calm     88% 0.0 mm 0 W/m2
22:27 14.2 °C 12.4 °C 1018.0 hPa Calm     89% 0.0 mm 0 W/m2
22:32 14.1 °C 12.3 °C 1018.0 hPa Calm     89% 0.0 mm 0 W/m2
22:38 14.1 °C 12.3 °C 1018.0 hPa Calm     89% 0.0 mm 0 W/m2
22:43 14 °C 12.2 °C 1018.0 hPa Calm     89% 0.0 mm 0 W/m2
22:48 13.9 °C 12.3 °C 1018.0 hPa Calm     90% 0.0 mm 0 W/m2
22:53 13.8 °C 12.2 °C 1018.0 hPa Calm     90% 0.0 mm 0 W/m2
22:58 13.8 °C 12.2 °C 1018.0 hPa Calm     90% 0.0 mm 0 W/m2
23:03 13.7 °C 12.1 °C 1018.0 hPa Calm     90% 0.0 mm 0 W/m2
23:08 13.6 °C 12 °C 1018.0 hPa Calm     90% 0.0 mm 0 W/m2
23:13 13.6 °C 12 °C 1018.0 hPa Calm     90% 0.0 mm 0 W/m2
23:18 13.5 °C 12.1 °C 1018.0 hPa Calm     91% 0.0 mm 0 W/m2
23:23 13.4 °C 12 °C 1018.0 hPa Calm     91% 0.0 mm 0 W/m2
23:28 13.4 °C 12 °C 1018.0 hPa Calm     91% 0.0 mm 0 W/m2
23:33 13.3 °C 11.9 °C 1018.0 hPa Calm     91% 0.0 mm 0 W/m2
23:38 13.2 °C 11.8 °C 1018.0 hPa Calm     91% 0.0 mm 0 W/m2
23:43 13.2 °C 11.8 °C 1018.0 hPa Calm     91% 0.0 mm 0 W/m2
23:48 13.1 °C 11.8 °C 1018.3 hPa Calm     92% 0.0 mm 0 W/m2
23:53 13.1 °C 11.8 °C 1018.0 hPa Calm     92% 0.0 mm 0 W/m2
23:58 13.1 °C 11.8 °C 1018.0 hPa Calm     92% 0.0 mm 0 W/m2
Juneau County Weather
Compliments of Weather Underground - 4 mb